Temp_Advection
nan nan nan nan nan nan nan nan nan nan nan nan nan nan nan nan nan nan nan nan nan nan nan nan nan nan nan nan nan nan nan nan nan nan nan nan nan nan nan nan nan nan nan nan nan nan nan nan nan
nan 0 -0 -1 -1 -0 -0 0 -0 -0 -0 -0 -0 0 -0 -0 -1 -0 -0 -1 -0 0 0 -0 0 -0 -0 0 0 0 0 0 0 0 0 0 0 0 0 -0 -0 -0 0 0 0 0 0 0 nan
nan -0 -1 -0 -0 0 -0 0 -0 -0 -0 -0 -0 -0 -0 -0 -0 -0 -0 -0 -1 -0 1 -0 -0 -0 -0 0 0 0 0 0 0 0 0 0 0 0 0 -0 -0 0 0 0 0 0 0 0 nan
nan -0 -1 -1 -0 -0 0 -0 -0 -0 -0 0 0 -1 -1 0 -0 -0 -0 -0 -0 -0 1 0 0 0 0 0 0 0 0 0 0 0 0 0 0 0 0 0 0 0 0 0 0 0 0 0 nan
nan -0 -0 -0 -0 0 -0 -0 -0 0 -0 -0 -0 -0 -1 -0 0 -0 0 -0 -0 -0 0 1 1 1 0 0 0 0 0 0 0 0 0 0 0 0 0 0 0 0 0 0 0 0 0 0 nan
nan -0 -0 0 -0 0 -0 -0 -0 -0 -0 -0 0 -0 -0 -0 0 -0 -0 -0 -1 -1 -1 -0 0 0 0 0 0 0 0 0 0 0 0 0 0 0 0 0 0 0 0 0 0 0 0 0 nan
nan -0 -0 0 0 0 -0 0 -0 0 -0 0 0 -0 -1 -0 -0 0 -0 -0 -0 -1 -1 -0 -0 0 0 0 0 0 0 0 0 0 0 0 0 0 0 0 0 0 0 -0 -0 0 0 0 nan
nan -0 -0 0 -0 -0 -0 0 -0 -0 -0 -0 0 0 -0 -0 -0 1 0 1 1 0 0 0 0 0 0 0 0 0 0 0 0 0 0 0 0 0 0 0 -0 0 0 0 0 -0 -0 -0 nan
nan -0 -0 -0 0 -0 -0 -0 -0 -0 0 -0 -0 -0 -0 -0 1 1 0 0 1 -0 -0 0 0 0 0 0 0 0 0 0 0 0 0 0 0 0 0 0 -0 0 0 0 0 0 -0 -0 nan
nan -0 0 -0 -0 -0 -0 -0 -0 -0 -0 -0 -0 0 0 0 1 -0 -0 -0 -0 0 0 0 0 -0 -0 -0 0 0 0 0 0 0 0 0 0 0 -0 -0 0 0 0 0 -0 -0 -0 0 nan
nan -0 0 0 0 -0 -0 0 -0 -0 -0 0 0 -0 0 0 -0 -0 -0 -0 0 1 1 1 0 0 0 0 0 0 0 0 0 0 0 0 -0 -0 0 0 -0 -0 -0 -0 -0 -0 0 0 nan
nan 0 -0 0 0 -0 -0 -0 -0 -0 0 0 0 0 -0 -0 -0 -0 -0 0 0 0 1 0 0 0 0 0 0 -0 -0 -0 -0 -0 0 0 0 0 0 -0 0 0 0 -0 0 -0 -0 -0 nan
nan 0 0 0 -0 -0 -0 -1 -0 0 0 0 0 0 -0 -0 -0 -0 0 0 0 0 0 -1 -1 -0 -0 -0 -0 -0 -0 0 0 0 0 0 0 0 -0 0 -0 -0 0 0 -0 0 0 -0 nan
nan -0 -0 -0 -0 0 -0 -0 -0 -0 0 1 0 -0 -0 -0 -0 0 -0 0 0 0 -0 -2 -1 -0 -0 0 0 0 0 1 0 0 -0 -0 0 -0 -0 -0 0 0 0 -0 0 0 0 -0 nan
nan -1 -0 -0 -0 0 -0 -1 -1 1 0 -0 -0 -0 0 0 0 0 0 0 -0 0 -1 0 0 -0 0 0 0 0 0 0 -0 -0 -0 0 -0 -0 -0 0 0 0 0 0 0 0 0 0 nan
nan -0 -0 0 0 -0 -0 -1 -0 0 -0 -0 -0 0 0 0 0 0 0 0 0 0 -0 1 -0 -0 0 0 0 0 0 0 0 -0 0 -0 0 0 0 0 0 0 0 0 0 0 0 0 nan
nan -0 0 0 -0 -0 -0 -0 -0 -0 -0 -0 -0 0 -0 0 0 0 0 0 0 0 0 -0 -0 0 1 1 0 0 0 0 0 0 0 0 0 0 0 0 0 0 0 0 0 1 0 0 nan
nan 0 0 -0 -0 0 -0 -1 -0 0 -0 -0 -0 -0 -0 -0 0 0 1 1 1 1 1 0 1 1 1 1 0 0 0 0 -0 0 0 0 0 0 0 0 -0 -0 1 1 0 0 0 0 nan
nan -0 -0 -0 0 0 -1 -0 -0 -0 0 -0 -0 -0 0 0 1 1 1 0 0 1 1 1 1 1 -0 0 0 0 -0 -0 -0 0 0 0 0 0 1 0 -0 -0 0 1 0 0 0 0 nan
nan -0 -1 -0 0 -0 -1 -0 -1 -0 0 0 0 0 1 1 1 1 0 0 1 2 1 1 0 -0 -1 1 1 0 -0 -0 0 0 0 0 -0 -0 -0 0 0 1 1 1 1 0 0 0 nan
nan -0 -0 -0 -0 0 -0 -1 -0 0 0 0 0 1 1 0 0 1 1 1 1 2 1 1 1 -0 0 1 1 0 -0 0 1 1 0 -0 -0 0 0 0 0 0 0 1 1 1 1 0 nan
nan -0 0 -0 -0 -0 0 -0 -0 0 -0 0 1 0 0 0 0 0 1 1 1 1 0 1 1 1 1 0 0 0 0 1 0 0 -0 -0 -0 0 0 0 0 0 0 -0 0 1 1 1 nan
nan 0 -0 -0 0 -0 -0 -0 -0 0 -1 -0 0 1 0 0 0 0 0 0 0 -0 0 1 1 -0 -0 0 1 0 1 0 -0 -1 -1 0 0 0 0 0 1 0 0 -0 -0 0 1 1 nan
nan -0 0 -0 0 -0 -0 -0 -0 -0 -0 -0 -0 -0 -0 0 0 0 0 0 -0 -0 0 0 0 -0 -0 0 0 1 1 0 -0 -0 1 1 0 0 0 1 0 0 0 0 -0 -0 1 1 nan
nan -0 -0 0 -0 -0 -0 -0 -1 -0 0 0 0 0 0 0 0 0 -0 -0 -0 0 0 0 0 -0 0 0 1 1 0 -0 0 1 1 0 0 0 0 0 0 0 0 1 0 0 0 0 nan
nan 0 0 -0 -0 0 -0 -1 -1 0 -0 0 1 0 0 0 0 0 -0 -0 0 1 1 1 0 0 1 1 0 -0 -0 0 1 0 0 0 0 0 0 0 0 0 0 1 1 0 -0 0 nan
nan -0 -0 0 0 -0 -1 -1 -0 1 1 0 0 0 0 0 0 0 0 0 0 1 1 1 0 1 1 0 -0 -0 0 0 0 0 0 0 0 0 0 0 0 0 0 0 1 1 1 -0 nan
nan -0 0 0 0 -1 -1 -0 0 -0 -0 -0 0 0 0 0 0 0 0 1 1 1 0 1 0 0 0 0 0 0 0 0 0 0 0 0 0 0 0 0 0 0 0 0 0 1 1 0 nan
nan 0 -0 -0 0 0 -1 -1 0 -0 0 0 0 0 0 0 0 0 0 0 1 0 0 0 0 0 0 -0 -1 -0 0 0 0 1 0 0 0 0 0 0 1 1 0 -0 -0 0 1 1 nan
nan nan nan nan nan nan nan nan nan nan nan nan nan nan nan nan nan nan nan nan nan nan nan nan nan nan nan nan nan nan nan nan nan nan nan nan nan nan nan nan nan nan nan nan nan nan nan nan nan
Wind_Speed
1 2 2 2 6 6 9 8 3 6 6 2 5 1 7 8 5 4 10 6 15 21 25 26 26 24 22 20 19 18 16 14 12 9 8 8 8 7 7 7 7 6 6 6 5 5 4 3 4
2 4 2 3 7 9 9 5 4 5 4 10 8 7 3 6 6 11 12 11 16 21 25 26 25 23 22 21 19 17 15 13 10 8 7 7 7 7 7 7 6 5 5 5 5 5 4 4 3
3 4 5 3 4 6 9 4 4 9 7 4 5 5 3 5 8 8 11 13 17 20 24 25 25 23 21 20 18 16 14 11 9 8 7 7 7 6 6 5 6 5 5 4 4 4 3 3 3
3 3 5 7 9 8 6 6 4 11 5 1 3 7 6 5 6 6 12 12 15 18 20 24 24 23 21 19 18 16 14 11 9 8 7 6 6 6 5 5 5 5 4 4 4 4 4 3 3
2 4 4 5 9 5 4 4 1 6 4 3 2 7 7 4 8 9 12 13 16 18 18 22 23 22 21 19 17 16 13 11 10 8 7 6 5 5 5 5 4 3 3 3 4 4 4 4 4
6 3 7 8 7 6 5 4 2 4 1 4 1 8 6 8 8 11 14 13 15 17 18 22 23 22 21 19 17 16 14 13 11 9 8 6 6 6 6 5 4 3 3 3 4 5 5 5 6
3 4 4 4 8 9 6 5 1 4 3 5 2 7 4 8 12 15 15 16 17 19 20 21 23 23 21 20 18 17 16 14 13 11 9 8 7 5 5 4 3 3 3 3 4 6 6 6 6
3 3 6 2 5 10 6 2 1 3 6 3 3 3 6 12 17 18 18 18 19 19 19 21 22 23 23 22 20 19 17 15 14 13 11 9 7 6 5 5 4 4 4 4 5 6 7 7 8
3 5 6 6 7 4 5 1 3 0 4 3 4 2 5 13 17 18 19 18 19 21 21 22 24 23 23 22 22 20 18 17 16 14 12 10 7 6 6 6 5 4 5 5 6 6 7 8 10
7 5 4 5 2 1 2 1 1 5 6 6 6 5 7 11 18 19 20 19 20 21 23 23 24 25 24 23 23 21 21 19 17 15 14 10 10 8 8 8 7 5 5 5 6 7 8 9 7
3 6 3 5 3 3 5 3 2 6 7 3 6 9 11 15 19 20 20 19 19 18 20 22 24 24 24 25 22 19 20 17 16 15 14 12 11 11 10 7 6 5 3 3 4 7 7 9 9
8 7 7 3 4 6 7 9 7 8 9 2 5 6 12 16 19 21 21 20 20 19 19 19 21 23 24 25 25 22 18 18 16 16 17 13 11 11 8 7 7 5 5 7 7 6 8 11 12
10 7 7 11 12 14 12 15 14 13 12 10 8 9 14 16 18 19 20 20 19 20 20 21 20 21 23 25 26 25 21 21 16 15 15 13 10 9 8 8 8 9 10 11 12 10 10 11 13
2 7 11 13 15 15 12 16 8 16 20 18 15 16 16 17 18 18 22 22 22 21 21 20 19 19 21 22 23 23 23 20 19 15 13 14 11 10 9 8 8 8 9 12 15 11 10 11 14
6 10 10 13 11 6 6 13 16 19 13 18 20 17 17 18 18 21 20 23 22 21 19 21 21 20 20 20 20 21 22 21 19 16 16 13 11 11 10 10 10 12 15 17 17 19 18 16 16
9 6 9 8 5 5 8 11 5 5 12 14 18 16 16 18 20 19 19 19 21 20 21 21 23 22 21 20 20 18 19 19 18 17 14 12 12 11 12 12 13 16 18 20 22 21 26 23 21
8 11 7 5 4 3 7 8 5 4 5 9 11 13 13 12 16 21 21 20 21 21 21 23 24 25 25 22 20 18 17 19 19 17 16 14 12 12 15 15 17 18 22 25 25 24 23 22 23
5 9 8 7 7 7 10 13 13 8 8 11 12 13 14 13 14 15 21 22 21 22 23 23 26 27 28 26 22 19 20 20 18 17 15 14 13 12 14 17 15 17 20 21 26 26 23 26 24
9 9 11 8 4 7 11 12 13 14 13 16 18 18 18 18 16 15 18 21 22 22 24 25 26 28 31 32 29 24 23 21 19 18 16 14 12 12 16 11 12 16 20 21 21 24 25 23 22
9 12 13 10 3 6 11 14 14 16 18 19 16 16 16 15 15 16 18 23 25 25 25 25 27 29 34 33 29 27 23 21 18 17 16 15 14 15 15 15 18 21 24 27 26 25 26 24 25
13 13 10 10 8 12 10 18 13 10 11 14 17 15 11 9 10 12 15 18 24 24 24 25 27 31 35 33 32 28 25 22 20 17 14 14 13 15 16 17 19 22 25 26 27 25 26 28 28
12 10 13 10 7 7 2 6 5 8 9 12 13 9 7 4 4 6 11 14 16 17 21 21 23 32 32 34 34 29 26 19 16 15 13 14 15 16 16 17 19 21 22 23 25 26 26 26 27
3 3 6 7 9 7 13 6 4 8 13 9 6 8 3 2 5 7 8 8 9 12 16 16 21 25 30 31 27 27 23 19 19 18 17 16 16 15 15 16 18 19 21 22 24 26 27 27 26
4 6 6 6 8 10 16 11 7 6 5 2 5 5 2 5 7 8 8 8 9 11 10 11 15 19 25 30 28 27 26 25 21 21 18 15 14 13 14 14 18 21 23 24 24 26 28 25 24
10 7 5 6 6 8 3 6 13 9 11 7 4 3 2 6 8 7 7 8 8 9 11 14 16 23 26 30 28 23 21 20 20 17 13 12 11 14 15 16 18 21 23 26 27 27 28 28 27
15 10 7 7 8 10 8 8 7 4 6 6 10 7 5 6 6 7 9 10 11 13 15 17 21 23 26 24 24 21 23 22 17 15 13 13 14 16 18 19 21 23 25 26 27 29 29 28 28
7 9 5 13 17 12 12 17 13 15 10 9 8 7 6 6 6 9 11 13 13 14 16 18 19 19 19 21 23 25 24 22 19 17 15 16 16 17 20 21 24 25 25 27 28 30 30 30 30
9 4 4 6 7 15 11 12 9 6 10 11 10 11 7 7 8 10 13 15 15 16 16 17 18 19 19 20 21 21 22 20 18 18 18 18 18 21 22 26 29 31 30 30 30 31 30 31 33
7 10 9 9 10 14 16 9 6 4 3 7 8 7 7 8 9 9 13 17 18 19 20 22 23 21 21 22 22 23 22 21 21 20 19 18 20 23 26 32 34 35 34 33 32 32 31 31 33
10 17 18 12 15 13 15 17 16 16 14 12 14 9 8 7 7 10 14 17 20 23 23 25 24 24 21 25 26 25 23 22 20 19 17 18 23 27 32 33 35 36 34 33 34 35 33 30 32
Wind_Direction
178 167 165 215 232 238 127 125 28 143 156 96 112 266 51 25 0 23 140 162 152 159 168 168 168 168 168 169 169 168 165 159 155 146 137 132 131 131 130 133 135 132 131 135 138 140 140 127 124
229 190 224 241 245 181 117 98 164 58 106 128 111 116 89 73 69 120 135 145 152 159 170 171 171 171 172 174 174 173 170 166 157 149 142 138 141 144 143 136 134 147 155 152 150 152 152 143 150
177 170 251 249 251 108 114 80 54 111 117 168 118 73 76 87 121 130 147 147 152 162 172 178 177 177 177 178 179 178 175 170 165 156 151 154 153 148 140 145 149 160 164 164 165 174 170 173 177
149 215 227 242 121 83 47 59 90 138 125 81 107 89 88 114 128 134 148 146 154 164 171 183 185 185 183 183 185 186 185 183 176 169 166 164 161 158 154 153 158 166 172 188 188 191 196 199 209
184 231 232 189 103 80 26 7 211 153 102 106 327 108 110 131 141 143 154 154 161 164 172 184 189 191 190 190 191 192 194 191 185 184 181 177 172 175 172 174 181 179 193 211 220 224 225 221 231
202 261 213 167 100 93 89 11 248 224 9 134 150 128 124 162 151 161 166 164 170 171 172 188 192 196 195 196 196 198 199 195 195 195 194 191 185 186 179 189 189 201 224 250 261 269 263 252 240
286 250 83 142 114 104 50 41 205 208 204 142 127 135 125 158 171 171 174 179 184 186 191 190 196 199 199 200 201 203 203 202 202 202 203 199 194 188 193 201 215 236 248 255 266 270 267 268 264
280 265 167 149 153 107 46 17 38 246 128 134 167 116 137 179 179 177 174 182 187 188 194 196 197 200 202 202 204 206 207 206 208 209 209 209 208 205 212 226 240 241 236 251 267 274 279 278 275
267 226 166 145 185 88 36 29 106 290 171 148 165 116 134 173 184 177 181 181 188 193 195 199 198 199 203 205 206 206 207 208 210 211 213 214 205 222 232 240 256 237 226 235 245 262 273 281 279
254 253 128 121 102 41 35 304 3 207 161 174 188 208 180 185 189 187 188 190 194 198 198 201 203 205 203 200 207 203 207 208 209 212 218 208 206 206 212 250 249 247 240 245 262 271 272 269 253
192 265 128 187 222 275 307 233 251 233 209 224 221 195 191 189 192 199 200 201 199 198 203 203 204 205 206 208 201 200 205 204 203 207 222 208 222 231 237 235 257 261 266 276 303 315 298 262 249
242 241 253 254 234 260 273 300 260 240 264 237 241 207 198 201 206 205 206 204 199 199 201 203 206 205 206 209 209 204 203 207 211 219 225 216 225 230 222 224 224 222 237 249 277 271 288 286 272
239 256 251 251 256 261 276 268 270 264 255 249 225 215 215 213 214 212 210 210 204 204 202 201 203 203 206 209 212 215 210 216 211 214 225 217 221 227 224 222 224 232 259 271 275 273 274 276 271
163 256 266 270 261 254 251 259 260 251 256 242 226 231 220 218 215 211 209 212 209 208 207 205 204 203 207 211 215 218 220 219 216 214 217 223 220 223 228 240 249 258 263 263 277 265 267 268 265
258 271 257 251 250 221 219 239 231 254 249 244 229 229 229 226 220 217 218 214 212 212 210 213 207 206 208 211 216 220 219 218 218 215 216 215 220 232 241 254 262 266 274 276 275 272 273 271 265
255 245 262 127 211 157 209 269 142 232 241 234 230 232 232 230 228 227 221 220 216 211 209 217 214 211 212 212 215 218 212 208 209 208 201 214 227 238 256 260 271 279 285 280 278 277 273 273 271
209 261 223 233 197 193 235 291 148 200 215 230 222 226 233 238 235 228 225 221 217 215 210 212 220 217 214 213 214 210 203 197 193 194 206 219 228 246 257 272 276 275 282 281 279 278 277 274 274
250 238 218 251 148 233 261 265 274 235 243 234 227 230 238 238 239 229 222 223 222 218 215 212 218 220 216 214 210 202 196 192 197 208 213 225 239 255 269 272 273 277 276 278 281 276 273 278 278
276 266 269 270 272 279 262 265 265 264 243 249 248 244 239 240 241 227 220 221 222 219 219 215 214 214 215 213 207 200 196 195 206 211 225 233 237 265 265 257 262 276 280 278 276 281 280 274 279
246 262 265 273 291 246 280 276 268 265 261 261 266 260 259 252 240 236 229 231 234 231 223 219 215 211 219 217 211 208 200 205 217 222 232 230 242 252 260 273 281 282 283 286 286 281 275 271 274
230 244 262 272 303 252 278 267 235 239 241 256 262 258 258 254 249 242 234 237 240 239 232 223 217 216 219 213 209 205 202 209 218 219 214 230 227 249 270 279 280 282 284 286 288 280 273 273 271
235 226 247 264 267 277 6 287 242 242 260 254 248 231 250 246 271 266 247 242 241 240 233 224 215 222 214 211 209 207 204 206 209 211 208 216 240 259 271 276 279 280 282 286 286 284 276 266 264
219 181 224 253 264 298 261 254 224 188 272 268 231 211 179 316 301 283 276 264 254 244 244 222 212 219 213 209 205 205 206 211 209 206 209 231 254 263 274 278 275 276 277 279 283 285 281 273 265
132 190 213 236 257 251 247 227 272 246 269 124 110 125 11 321 296 280 268 259 244 243 242 228 223 220 212 208 203 202 208 207 203 204 222 239 251 266 274 272 274 277 281 281 278 279 280 274 269
225 237 257 225 206 261 104 230 258 271 262 265 253 227 304 277 278 273 261 261 253 242 231 218 208 207 204 204 202 199 207 201 205 215 226 240 255 266 271 272 280 289 290 285 279 276 275 274 270
207 238 261 279 277 289 167 249 255 235 310 259 239 256 253 264 256 260 243 233 234 235 221 216 208 208 206 205 196 197 193 202 206 216 231 245 252 262 268 277 288 294 292 290 284 278 275 274 271
176 216 272 273 267 268 253 263 265 251 249 252 231 226 266 242 235 241 238 238 239 235 226 219 209 205 201 199 194 198 205 211 218 228 236 249 259 268 271 281 286 290 292 292 289 283 277 274 274
262 123 216 205 267 270 254 265 258 255 242 243 235 242 230 227 231 231 224 228 225 223 219 211 202 201 198 198 202 206 215 222 228 237 247 258 267 272 279 287 291 292 288 286 288 287 281 275 279
194 232 243 286 268 271 282 269 29 247 253 225 243 215 226 252 251 243 238 232 228 224 217 216 210 201 201 204 211 219 226 231 237 246 258 266 276 282 287 287 287 288 287 285 283 283 282 275 275
282 263 244 248 265 238 263 267 258 254 268 254 243 224 228 233 235 252 245 234 230 225 220 219 215 212 212 217 222 227 233 238 244 253 259 271 288 285 283 288 292 290 285 281 277 276 275 274 272
Height
1519 1519 1520 1522 1517 1503 1500 1502 1500 1501 1502 1505 1505 1503 1502 1505 1505 1511 1517 1517 1518 1522 1524 1529 1532 1535 1538 1541 1543 1545 1547 1549 1550 1551 1551 1552 1553 1554 1555 1555 1556 1556 1557 1558 1558 1559 1559 1559 1560
1519 1519 1521 1517 1505 1497 1501 1501 1499 1498 1504 1506 1507 1507 1506 1510 1513 1515 1517 1516 1519 1522 1524 1528 1532 1536 1539 1541 1544 1546 1548 1549 1550 1550 1551 1552 1553 1554 1555 1556 1556 1557 1558 1558 1559 1559 1558 1559 1560
1518 1520 1518 1508 1497 1491 1501 1500 1501 1505 1507 1506 1506 1509 1510 1513 1516 1517 1517 1518 1520 1523 1526 1528 1533 1536 1539 1542 1544 1546 1548 1549 1550 1551 1552 1553 1554 1554 1555 1555 1557 1558 1558 1558 1559 1559 1559 1560 1561
1520 1521 1518 1502 1498 1504 1500 1501 1504 1505 1507 1507 1505 1508 1514 1514 1517 1517 1517 1519 1521 1524 1527 1528 1532 1535 1539 1542 1544 1546 1548 1549 1550 1551 1552 1553 1554 1554 1554 1555 1557 1557 1557 1558 1558 1559 1559 1560 1561
1519 1516 1505 1499 1502 1503 1503 1505 1506 1502 1505 1506 1507 1509 1513 1516 1515 1517 1519 1521 1523 1526 1529 1529 1533 1536 1538 1541 1544 1546 1548 1549 1550 1551 1552 1553 1554 1554 1555 1556 1557 1557 1557 1558 1558 1558 1558 1559 1560
1514 1513 1502 1499 1504 1504 1504 1507 1508 1504 1506 1508 1508 1508 1514 1515 1517 1518 1519 1521 1523 1525 1528 1528 1532 1535 1538 1541 1544 1546 1547 1548 1550 1551 1552 1553 1554 1554 1555 1556 1557 1557 1557 1558 1558 1558 1559 1559 1559
1511 1505 1504 1505 1507 1505 1507 1507 1507 1504 1505 1506 1509 1507 1516 1517 1517 1518 1520 1522 1523 1524 1526 1527 1530 1534 1537 1540 1542 1545 1546 1548 1549 1551 1552 1553 1553 1554 1555 1555 1556 1557 1557 1557 1557 1557 1557 1557 1558
1513 1507 1506 1506 1504 1510 1509 1507 1508 1507 1504 1509 1510 1506 1512 1516 1515 1517 1519 1521 1522 1523 1525 1527 1529 1532 1535 1538 1541 1543 1545 1547 1548 1549 1551 1551 1552 1553 1553 1554 1554 1555 1555 1556 1556 1556 1556 1556 1555
1515 1504 1504 1506 1506 1507 1508 1507 1508 1509 1508 1509 1510 1511 1512 1513 1514 1517 1518 1519 1520 1521 1523 1525 1528 1530 1533 1536 1538 1541 1543 1545 1546 1548 1549 1550 1551 1551 1552 1552 1552 1553 1553 1553 1553 1553 1554 1553 1553
1510 1502 1501 1505 1508 1509 1508 1508 1507 1506 1506 1507 1509 1509 1511 1510 1512 1515 1516 1518 1518 1520 1521 1523 1525 1528 1530 1533 1535 1539 1541 1543 1545 1546 1547 1549 1550 1551 1551 1550 1550 1551 1551 1552 1552 1551 1552 1551 1552
1509 1502 1504 1507 1509 1510 1507 1506 1508 1503 1502 1504 1505 1508 1509 1510 1510 1513 1515 1517 1518 1519 1520 1521 1523 1525 1528 1531 1534 1538 1539 1542 1543 1545 1545 1547 1547 1548 1548 1550 1549 1549 1550 1551 1550 1551 1551 1551 1551
1509 1507 1508 1506 1509 1509 1507 1507 1504 1503 1502 1504 1505 1506 1507 1507 1509 1509 1512 1515 1516 1517 1518 1519 1520 1523 1526 1529 1532 1534 1537 1538 1540 1541 1543 1545 1546 1547 1548 1550 1550 1548 1548 1549 1549 1550 1549 1548 1547
1508 1505 1507 1507 1508 1507 1507 1505 1501 1500 1501 1502 1503 1503 1504 1505 1505 1507 1509 1511 1514 1515 1515 1517 1518 1520 1523 1525 1527 1529 1533 1534 1537 1539 1540 1542 1545 1546 1547 1547 1547 1547 1547 1547 1546 1546 1546 1546 1545
1506 1506 1504 1503 1502 1502 1504 1499 1501 1496 1496 1497 1499 1499 1500 1501 1502 1504 1504 1506 1508 1511 1511 1512 1514 1517 1519 1521 1523 1526 1529 1531 1533 1536 1539 1539 1541 1543 1545 1545 1547 1547 1546 1544 1544 1544 1542 1543 1543
1506 1504 1497 1494 1495 1496 1500 1495 1491 1490 1492 1491 1493 1495 1496 1497 1499 1499 1501 1503 1505 1507 1509 1509 1511 1513 1515 1518 1521 1524 1526 1528 1530 1532 1534 1537 1539 1540 1541 1542 1543 1543 1542 1542 1541 1540 1539 1539 1538
1502 1500 1495 1490 1493 1494 1495 1484 1482 1488 1488 1488 1488 1490 1492 1493 1495 1497 1498 1500 1502 1504 1506 1507 1508 1510 1513 1515 1517 1519 1522 1525 1527 1530 1532 1534 1535 1537 1539 1539 1540 1540 1539 1538 1538 1536 1534 1534 1532
1497 1491 1491 1488 1491 1490 1490 1480 1479 1485 1486 1485 1485 1487 1488 1489 1490 1491 1494 1496 1498 1500 1502 1502 1503 1506 1509 1511 1514 1516 1518 1520 1523 1525 1528 1530 1533 1535 1536 1537 1536 1534 1536 1535 1533 1531 1530 1528 1529
1485 1492 1489 1490 1487 1489 1486 1483 1477 1479 1481 1481 1480 1482 1483 1484 1484 1486 1488 1491 1493 1495 1497 1498 1499 1501 1504 1507 1510 1512 1515 1519 1522 1524 1527 1529 1530 1532 1534 1533 1532 1531 1531 1529 1529 1528 1525 1524 1523
1494 1493 1490 1485 1485 1492 1483 1478 1475 1473 1475 1476 1475 1475 1476 1478 1480 1481 1482 1484 1487 1489 1491 1492 1493 1495 1497 1500 1503 1508 1512 1516 1518 1520 1523 1525 1527 1528 1529 1529 1528 1526 1526 1525 1524 1522 1523 1521 1520
1496 1495 1489 1484 1485 1491 1479 1475 1470 1468 1467 1466 1467 1467 1469 1472 1475 1476 1476 1477 1478 1481 1484 1486 1487 1488 1489 1495 1500 1503 1508 1511 1515 1517 1519 1521 1523 1524 1524 1523 1522 1521 1520 1521 1520 1518 1516 1516 1515
1493 1492 1488 1490 1482 1480 1483 1469 1460 1461 1463 1465 1464 1465 1467 1469 1470 1471 1472 1472 1473 1474 1476 1478 1482 1482 1484 1490 1495 1500 1504 1507 1511 1514 1515 1516 1518 1519 1520 1519 1519 1518 1517 1514 1514 1512 1513 1511 1508
1489 1484 1488 1488 1488 1483 1480 1480 1458 1458 1457 1456 1457 1461 1463 1465 1466 1466 1467 1468 1469 1470 1471 1473 1477 1477 1481 1486 1490 1495 1499 1504 1507 1510 1514 1514 1515 1515 1515 1516 1517 1516 1514 1511 1509 1507 1504 1504 1504
1484 1486 1486 1485 1485 1485 1475 1484 1450 1457 1455 1446 1449 1457 1463 1464 1465 1466 1466 1467 1468 1467 1466 1469 1473 1476 1479 1486 1491 1494 1498 1501 1505 1506 1509 1510 1511 1512 1511 1512 1512 1510 1509 1507 1506 1501 1500 1497 1497
1486 1486 1486 1486 1483 1488 1466 1474 1450 1447 1448 1448 1454 1459 1462 1464 1464 1463 1462 1462 1463 1464 1466 1469 1472 1474 1477 1481 1485 1488 1491 1493 1497 1500 1503 1504 1504 1505 1506 1506 1506 1505 1503 1502 1498 1496 1494 1492 1491
1485 1484 1484 1484 1486 1474 1471 1474 1455 1446 1445 1449 1452 1457 1461 1460 1460 1460 1460 1460 1461 1462 1463 1464 1466 1468 1472 1475 1480 1486 1489 1493 1496 1495 1498 1500 1500 1501 1502 1499 1498 1497 1497 1495 1492 1491 1489 1487 1485
1477 1475 1480 1490 1476 1467 1474 1468 1448 1443 1446 1448 1453 1455 1456 1458 1459 1459 1458 1457 1458 1459 1460 1461 1463 1465 1467 1473 1477 1479 1483 1487 1489 1490 1493 1494 1494 1494 1494 1493 1492 1491 1489 1489 1488 1486 1484 1481 1478
1474 1480 1468 1477 1472 1479 1460 1444 1434 1439 1443 1447 1449 1452 1454 1456 1456 1456 1457 1456 1457 1459 1460 1461 1464 1467 1470 1470 1472 1476 1480 1481 1484 1485 1487 1488 1489 1490 1489 1486 1485 1484 1481 1481 1479 1477 1476 1473 1472
1472 1465 1477 1474 1485 1475 1446 1442 1445 1440 1440 1440 1443 1446 1449 1450 1451 1452 1453 1455 1456 1457 1460 1461 1464 1465 1468 1471 1473 1474 1477 1480 1481 1482 1483 1484 1486 1485 1483 1481 1479 1476 1473 1471 1471 1471 1469 1467 1465
1470 1471 1469 1464 1461 1466 1461 1446 1431 1434 1437 1439 1439 1444 1445 1446 1447 1447 1448 1449 1450 1453 1455 1456 1457 1460 1461 1464 1468 1470 1471 1473 1476 1478 1480 1482 1482 1480 1479 1477 1473 1471 1469 1467 1463 1461 1461 1460 1458
1460 1455 1457 1465 1461 1449 1450 1445 1431 1434 1435 1438 1438 1439 1439 1440 1441 1442 1442 1443 1444 1445 1447 1449 1453 1454 1457 1458 1459 1462 1465 1468 1469 1472 1474 1474 1472 1472 1470 1469 1468 1466 1461 1456 1454 1452 1451 1451 1451